Massena, NY

7:28 AM EST on November 21, 2017 (GMT -0500)
Massena International-Richards

Weather History for KMSS - January, 2014

Change the Weather History Date:

Saturday, January 18, 2014

  Actual Average Record
Temperature  
Mean Temperature 23 °F 14 °F  
Max Temperature 33 °F 24 °F 61 °F (1996)
Min Temperature 12 °F 4 °F -36 °F (1976)
Degree Days  
Heating Degree Days 42 51  
Month to date heating degree days 813 905  
Since 1 July heating degree days 4024 4004  
Cooling Degree Days 0 0  
Month to date cooling degree days 0  
Year to date cooling degree days 0  
Moisture  
Dew Point 22 °F    
Average Humidity 83    
Maximum Humidity 96    
Minimum Humidity 69    
Precipitation  
Precipitation 0.01 in 0.07 in 1.22 in (1999)
Month to date precipitation 1.36 1.33  
Year to date precipitation 1.36 1.33  
Sea Level Pressure  
Sea Level Pressure 29.79 in    
Wind  
Wind Speed 3 mph (WSW)    
Max Wind Speed 12 mph    
Max Gust Speed 15 mph    
Visibility 5 miles    
Events Snow    
T = Trace of Precipitation, MM = Missing Value Source: NWS Daily Summary

Daily Weather History Graph

Daily Weather History Graph

Search for Another Location

Airport or City:

Trip Planner

Search our weather history database for the weather conditions in past years. The results will help you decide how hot, cold, wet, or windy it might be!

Date:

Astronomy

Jan. 18, 2014 Rise Set
Actual Time 7:32 AM EST 4:48 PM EST
Civil Twilight 6:59 AM EST 5:20 PM EST
Nautical Twilight 6:23 AM EST 5:56 PM EST
Astronomical Twilight 5:48 AM EST 6:31 PM EST
Moon 7:36 PM EST (1/18) 8:22 AM EST (1/18)
Length of Visible Light 10h 21m
Length of Day
9h 16m
Waning Gibbous, 94% of the Moon is Illuminated
Jan 18
Waning Gibbous
Jan 24
Last Quarter
Jan 30
New
Feb 6
First Quarter
Feb 14
Full

Hourly Weather History & Observations

Time (EST) Temp. Windchill Dew Point Humidity Pressure Visibility Wind Dir Wind Speed Gust Speed Precip Events Conditions
12:53 AM 25.0 °F - 21.9 °F 88% 29.86 in 10.0 mi Calm Calm - N/A   Overcast
1:53 AM 24.1 °F - 21.0 °F 88% 29.85 in 10.0 mi Calm Calm - N/A   Overcast
2:53 AM 19.0 °F - 17.1 °F 92% 29.86 in 9.0 mi Calm Calm - N/A   Clear
3:53 AM 17.1 °F - 12.9 °F 84% 29.85 in 4.0 mi Calm Calm - N/A   Clear
3:55 AM 17.1 °F - 12.9 °F 84% 29.83 in 1.8 mi Calm Calm - N/A   Clear
4:03 AM 17.1 °F - 14.0 °F 88% 29.82 in 1.2 mi Calm Calm - N/A   Clear
4:05 AM 17.1 °F - 14.0 °F 88% 29.82 in 2.5 mi Calm Calm - N/A   Clear
4:12 AM 17.1 °F - 14.0 °F 88% 29.82 in 4.0 mi Calm Calm - N/A   Clear
4:18 AM 17.1 °F - 14.0 °F 88% 29.82 in 1.8 mi Calm Calm - N/A   Clear
4:24 AM 16.0 °F - 12.9 °F 88% 29.82 in 0.8 mi Calm Calm - N/A   Clear
4:35 AM 17.1 °F - 12.9 °F 84% 29.82 in 1.5 mi Calm Calm - N/A   Clear
4:37 AM 17.1 °F - 12.9 °F 84% 29.81 in 3.0 mi Calm Calm - N/A   Clear
4:53 AM 14.0 °F - 12.0 °F 92% 29.83 in 8.0 mi Calm Calm - N/A   Clear
5:53 AM 14.0 °F - 10.0 °F 84% 29.83 in 10.0 mi Calm Calm - N/A   Clear
6:53 AM 12.9 °F - 9.0 °F 84% 29.82 in 10.0 mi Calm Calm - N/A   Clear
7:53 AM 14.0 °F - 10.9 °F 88% 29.81 in 10.0 mi Calm Calm - N/A   Clear
8:53 AM 19.0 °F 13.9 °F 17.1 °F 92% 29.81 in 9.0 mi NNE 3.5 mph - N/A   Partly Cloudy
9:45 AM 25.0 °F - 23.0 °F 92% 29.80 in 9.0 mi Calm Calm - N/A   Overcast
9:53 AM 26.1 °F - 23.0 °F 88% 29.82 in 10.0 mi Calm Calm - N/A   Overcast
10:31 AM 28.9 °F - 25.0 °F 85% 29.80 in 10.0 mi Calm Calm - N/A   Mostly Cloudy
10:53 AM 28.9 °F - 24.1 °F 82% 29.81 in 10.0 mi Calm Calm - N/A   Mostly Cloudy
11:53 AM 30.9 °F - 24.1 °F 76% 29.79 in 10.0 mi Calm Calm - N/A   Overcast
12:53 PM 33.1 °F - 24.1 °F 70% 29.77 in 10.0 mi Calm Calm - N/A   Overcast
1:53 PM 32.0 °F 25.6 °F 24.1 °F 73% 29.76 in 10.0 mi NW 6.9 mph - N/A   Overcast
2:30 PM 30.9 °F 25.2 °F 26.1 °F 82% 29.74 in 4.0 mi West 5.8 mph - 0.00 in Snow Light Snow
2:37 PM 30.9 °F 25.2 °F 26.1 °F 82% 29.74 in 4.0 mi West 5.8 mph - 0.00 in   Haze
2:53 PM 30.9 °F 25.2 °F 27.0 °F 85% 29.76 in 2.0 mi WSW 5.8 mph - 0.00 in Snow Light Snow
3:19 PM 30.9 °F 26.2 °F 27.0 °F 85% 29.74 in 2.0 mi WSW 4.6 mph - 0.00 in Snow Light Snow
3:28 PM 30.9 °F 25.2 °F 27.0 °F 85% 29.74 in 3.0 mi West 5.8 mph - 0.00 in Snow Light Snow
3:45 PM 30.9 °F 26.2 °F 27.0 °F 85% 29.74 in 5.0 mi West 4.6 mph - 0.00 in   Overcast
3:53 PM 30.9 °F 26.2 °F 27.0 °F 85% 29.77 in 5.0 mi WNW 4.6 mph - 0.00 in   Overcast
4:13 PM 30.9 °F 25.2 °F 27.0 °F 85% 29.75 in 5.0 mi West 5.8 mph - 0.00 in Snow Light Snow
4:33 PM 30.9 °F 25.2 °F 27.0 °F 85% 29.75 in 2.0 mi WNW 5.8 mph - 0.00 in Snow Light Snow
4:53 PM 30.0 °F 24.1 °F 27.0 °F 88% 29.78 in 4.0 mi WNW 5.8 mph - 0.00 in Snow Light Snow
5:02 PM 30.0 °F 23.2 °F 27.0 °F 88% 29.76 in 2.5 mi WNW 6.9 mph - 0.00 in Snow Light Snow
5:12 PM 30.0 °F 25.2 °F 26.1 °F 85% 29.76 in 4.0 mi WNW 4.6 mph - 0.00 in Snow Light Snow
5:31 PM 28.9 °F 21.9 °F 26.1 °F 89% 29.77 in 2.5 mi WNW 6.9 mph - 0.00 in Snow Light Snow
5:45 PM 28.9 °F 22.8 °F 26.1 °F 89% 29.77 in 2.0 mi West 5.8 mph - 0.00 in Snow Light Snow
5:53 PM 28.9 °F 22.8 °F 25.0 °F 85% 29.79 in 4.0 mi West 5.8 mph - 0.00 in Snow Light Snow
6:02 PM 28.9 °F 23.9 °F 26.1 °F 89% 29.77 in 3.0 mi West 4.6 mph - 0.00 in Snow Light Snow
6:05 PM 28.9 °F 25.2 °F 26.1 °F 89% 29.77 in 2.5 mi West 3.5 mph - 0.00 in Snow Light Snow
6:26 PM 28.9 °F 21.9 °F 25.0 °F 85% 29.77 in 5.0 mi West 6.9 mph - 0.00 in Snow Light Snow
6:33 PM 28.9 °F 22.8 °F 25.0 °F 85% 29.77 in 2.5 mi West 5.8 mph - 0.00 in Snow Light Snow
6:42 PM 28.9 °F 21.9 °F 25.0 °F 85% 29.77 in 1.5 mi West 6.9 mph - 0.00 in Snow Light Snow
6:50 PM 28.4 °F 22.2 °F 24.8 °F 86% 29.78 in 3.0 mi West 5.8 mph - 0.00 in Snow Light Snow
6:53 PM 28.9 °F 23.9 °F 25.0 °F 85% 29.80 in 4.0 mi West 4.6 mph - 0.00 in Snow Light Snow
7:16 PM 28.9 °F 22.8 °F 25.0 °F 85% 29.78 in 4.0 mi WSW 5.8 mph - 0.00 in Snow Light Snow
7:37 PM 28.9 °F 22.8 °F 25.0 °F 85% 29.78 in 2.5 mi SW 5.8 mph - 0.00 in Snow Light Snow
7:43 PM 28.9 °F 21.9 °F 25.0 °F 85% 29.78 in 1.5 mi WSW 6.9 mph - 0.00 in Snow Light Snow
7:50 PM 28.4 °F 21.2 °F 24.8 °F 86% 29.78 in 1.0 mi WSW 6.9 mph - 0.00 in Snow Light Snow
7:53 PM 28.9 °F 22.8 °F 26.1 °F 89% 29.80 in 0.8 mi WSW 5.8 mph - 0.00 in Snow Light Snow
8:05 PM 28.0 °F 22.8 °F 26.1 °F 92% 29.77 in 1.0 mi WSW 4.6 mph - 0.01 in Snow Light Snow
8:24 PM 28.0 °F 21.7 °F 26.1 °F 92% 29.77 in 1.5 mi SW 5.8 mph - 0.01 in Snow Light Snow
8:40 PM 28.0 °F 20.8 °F 26.1 °F 92% 29.77 in 2.5 mi SW 6.9 mph - 0.01 in Snow Light Snow
8:53 PM 28.0 °F 20.8 °F 26.1 °F 92% 29.79 in 2.5 mi SW 6.9 mph - 0.01 in Snow Light Snow
9:19 PM 28.0 °F 20.8 °F 25.0 °F 88% 29.77 in 3.0 mi SW 6.9 mph - 0.00 in Snow Light Snow
9:37 PM 28.0 °F 21.7 °F 25.0 °F 88% 29.76 in 3.0 mi SW 5.8 mph - 0.00 in Snow Light Snow
9:46 PM 28.0 °F 20.8 °F 25.0 °F 88% 29.76 in 2.5 mi SW 6.9 mph - 0.00 in Snow Light Snow
9:53 PM 28.0 °F 21.7 °F 25.0 °F 88% 29.77 in 3.0 mi SW 5.8 mph - 0.00 in Snow Light Snow
10:21 PM 27.0 °F 18.0 °F 24.1 °F 89% 29.76 in 3.0 mi SW 9.2 mph - 0.00 in Snow Light Snow
10:51 PM 28.4 °F 18.5 °F 24.8 °F 86% 29.76 in 6.0 mi SW 11.5 mph - 0.00 in   Overcast
10:53 PM 28.0 °F 19.3 °F 25.0 °F 88% 29.78 in 7.0 mi SW 9.2 mph - 0.00 in   Overcast
11:12 PM 28.0 °F 20.0 °F 25.0 °F 88% 29.75 in 4.0 mi SW 8.1 mph - 0.00 in Snow Light Snow
11:31 PM 28.0 °F 20.0 °F 25.0 °F 88% 29.74 in 4.0 mi SW 8.1 mph - 0.00 in Snow Light Snow
11:53 PM 28.0 °F 20.0 °F 25.0 °F 88% 29.75 in 6.0 mi SW 8.1 mph - 0.00 in Snow Light Snow